Theta_e
307 309 309 307 306 307 307 310 308 311 313 316 324 323 324 331 335 336 338 343 347 351 353 354 354 355 353 353 354 357 360 360 363 366 370 372 372 374 376 376 374 373 373 372
304 308 309 306 308 308 308 309 311 313 314 321 325 326 326 329 332 337 340 344 348 355 356 356 358 359 359 359 359 362 360 361 366 369 370 372 373 374 374 374 374 374 372 372
301 307 307 304 308 308 310 311 311 309 317 321 322 328 329 329 331 333 338 342 349 354 359 362 363 365 361 363 370 366 366 365 368 371 371 372 374 374 374 373 375 374 373 371
302 306 298 308 314 312 310 312 314 315 319 324 322 329 327 332 332 331 336 343 348 350 355 364 363 367 369 366 369 370 369 369 371 372 372 374 374 373 375 375 375 375 371 364
302 302 306 308 312 312 309 310 316 315 319 319 322 323 329 338 339 340 343 345 347 350 355 361 358 366 365 367 368 366 367 370 371 372 372 373 372 373 375 375 374 370 369 361
305 300 298 309 315 319 319 308 321 322 325 318 326 316 327 340 339 341 346 347 347 346 345 355 366 366 365 362 365 365 367 369 374 375 373 372 372 373 374 373 367 358 359 355
301 302 306 312 316 319 306 311 323 325 326 328 326 329 336 337 341 345 347 346 346 350 349 358 370 367 371 365 362 369 370 372 374 374 374 374 373 374 370 364 353 352 350 353
303 302 300 314 316 313 318 321 322 323 325 326 329 332 334 336 338 342 348 350 350 351 358 366 372 368 373 368 371 373 372 371 372 373 369 372 371 367 360 353 349 350 348 349
306 304 313 313 314 318 320 318 321 324 323 324 324 327 330 332 336 341 345 357 358 354 361 365 373 370 368 374 375 371 371 369 369 369 371 370 363 355 350 348 347 346 345 342
307 308 309 310 313 314 316 316 318 320 321 322 322 326 326 331 336 340 345 352 357 355 357 363 368 370 371 376 375 369 367 367 369 367 362 358 355 351 347 346 346 345 343 340
303 307 309 309 310 311 313 315 315 318 320 319 320 322 322 328 331 335 341 349 357 361 361 367 366 368 373 371 369 367 366 368 364 356 354 347 335 343 346 348 343 347 346 344
294 303 306 305 309 311 311 311 313 315 318 320 319 316 321 323 324 330 337 346 359 364 360 365 364 370 369 370 370 368 366 360 354 348 339 336 333 321 306 308 306 311 323 335
300 304 306 308 310 310 310 312 312 314 317 318 321 318 318 319 320 322 336 341 347 357 363 365 366 367 371 373 372 366 360 353 346 342 343 337 336 335 322 311 302 300 305 307
308 310 308 309 308 311 311 312 313 315 316 317 319 320 318 319 318 321 325 334 341 356 369 368 366 364 369 370 366 364 361 334 351 348 345 344 342 340 339 336 328 322 305 306
305 312 312 313 314 313 313 312 311 312 314 315 317 319 318 318 317 320 323 331 339 353 361 363 364 361 363 366 365 364 355 354 354 352 349 345 346 344 345 341 331 321 314 306
306 309 312 312 314 315 315 315 312 311 312 313 315 317 320 321 322 322 325 326 334 336 354 354 354 361 367 365 365 360 356 340 346 352 349 349 348 347 345 341 328 325 322 318
302 302 306 308 311 312 313 315 316 315 313 313 315 316 318 322 320 321 322 326 332 337 354 356 354 361 362 366 362 357 357 355 347 355 352 353 351 349 347 337 332 330 327 320
303 304 306 308 310 311 312 313 314 316 317 315 317 318 319 321 320 320 324 328 329 335 352 353 353 352 359 365 362 359 357 356 356 354 355 354 350 347 343 338 334 332 327 316
302 303 305 307 310 311 313 313 315 317 320 317 315 316 319 321 324 324 325 325 327 329 336 339 340 345 357 359 351 356 354 354 353 353 351 338 343 344 342 339 336 335 328 319
302 304 306 307 312 313 312 314 316 317 319 317 317 316 318 320 322 324 326 324 328 335 340 340 350 357 359 355 342 354 353 353 353 352 345 343 343 343 342 330 338 337 328 323
302 303 305 306 308 312 315 313 315 317 316 316 318 318 318 321 322 323 320 318 338 338 331 333 345 354 355 348 351 354 350 352 352 346 342 342 341 342 340 338 337 336 330 327
303 302 303 304 307 309 312 314 317 317 317 317 317 318 319 320 321 322 324 322 324 320 332 336 343 343 349 330 353 352 348 351 348 343 341 340 340 340 339 338 337 336 332 330
305 301 302 302 302 304 307 307 311 311 312 319 320 321 320 318 319 317 316 326 325 323 334 340 334 326 325 342 346 347 346 344 343 340 340 340 340 339 338 336 337 334 331 330
303 301 302 303 302 301 300 303 305 307 310 313 309 313 317 319 318 319 321 316 310 311 322 335 326 320 318 345 348 347 347 346 340 339 339 323 337 337 336 335 334 333 331 325
305 302 303 303 300 299 299 301 300 300 301 302 302 305 307 310 313 315 324 325 317 318 323 318 316 317 336 340 348 348 346 346 341 339 339 337 335 335 335 334 333 332 332 330
305 305 305 305 303 302 300 298 297 299 298 298 299 300 302 304 305 308 312 313 319 319 327 327 330 335 338 342 346 345 346 346 340 336 335 338 336 334 333 333 331 331 331 331
306 301 304 304 304 302 301 300 297 296 297 297 297 299 299 301 302 302 303 307 309 313 316 325 329 330 338 339 342 344 340 343 335 345 339 337 333 334 333 332 332 331 330 331
Wind_Speed
26 29 22 25 28 28 29 22 24 19 17 20 11 9 6 17 14 7 4 5 14 13 13 14 13 13 14 15 13 15 15 16 16 15 14 14 13 12 10 10 10 9 9 8
25 27 30 29 29 29 30 29 25 25 13 14 9 12 20 12 11 10 5 9 12 13 13 13 12 12 12 12 14 13 14 15 13 13 13 12 12 11 11 10 10 9 8 7
19 23 25 21 29 27 26 24 25 22 13 19 19 1 8 14 10 14 14 6 9 10 10 9 9 9 11 11 8 11 12 13 13 12 12 11 10 9 9 9 8 6 5 4
16 18 23 14 18 25 26 22 21 23 16 13 18 4 11 10 12 7 14 10 11 8 8 9 10 9 7 9 9 8 9 11 11 12 11 9 9 8 7 6 6 4 4 4
12 15 14 22 10 18 21 23 20 19 16 15 19 10 11 16 17 16 15 11 8 4 11 9 11 10 11 9 10 11 11 11 11 11 10 9 9 8 6 5 4 6 4 9
11 16 18 11 15 16 10 15 8 9 14 13 4 15 5 9 14 11 10 8 7 8 8 6 6 11 13 14 12 14 13 11 9 10 10 10 9 8 7 6 6 8 9 9
14 11 6 18 19 17 10 9 13 15 15 16 16 11 6 8 9 7 5 4 5 6 6 5 5 5 8 13 14 11 11 11 10 10 10 10 9 7 8 8 12 9 9 8
14 17 3 25 6 7 10 11 11 12 12 11 11 13 14 12 12 12 13 9 7 7 5 4 3 6 6 9 9 10 10 12 12 12 10 10 12 10 11 12 11 10 10 9
2 8 9 14 15 14 12 11 10 11 13 13 12 12 12 11 11 11 12 13 10 7 5 5 6 6 7 6 9 10 11 13 13 13 11 12 12 12 10 11 10 10 9 8
9 11 12 14 14 13 13 13 12 12 13 14 14 14 14 12 12 11 12 14 12 11 8 6 6 6 7 8 10 14 15 14 13 13 13 11 9 10 9 10 10 9 10 9
17 12 13 14 13 12 12 12 12 12 13 14 14 13 13 11 12 12 13 14 12 12 8 5 8 7 9 12 15 15 15 14 13 11 12 11 8 6 9 9 7 10 9 10
7 10 9 7 8 12 11 12 12 12 12 13 13 13 13 10 11 12 13 15 13 16 11 9 9 9 11 13 15 17 15 13 11 10 9 9 8 7 17 9 5 3 14 10
9 8 4 5 9 11 9 10 10 9 10 9 10 9 10 9 10 13 14 14 15 16 13 10 10 11 12 13 14 15 14 15 11 11 10 10 9 10 9 7 16 15 15 19
18 18 8 8 8 8 8 9 9 7 7 8 8 8 8 7 8 11 12 13 15 18 5 10 10 11 12 12 13 13 14 15 12 11 11 11 11 11 10 10 9 7 12 10
19 21 17 10 9 8 7 7 8 8 7 7 8 9 6 6 8 11 12 14 15 11 4 7 7 11 12 14 14 14 14 12 12 12 11 12 12 12 11 11 10 9 9 8
19 20 19 18 15 12 11 10 9 9 9 9 9 9 9 3 5 7 9 11 11 10 6 3 4 7 13 14 12 11 12 13 12 12 12 13 12 12 11 11 11 9 9 10
17 17 19 17 17 16 15 15 13 10 10 10 9 10 10 5 4 7 8 11 11 11 4 1 4 4 8 11 11 10 10 13 16 14 13 12 12 13 12 12 11 10 10 11
15 15 15 17 17 18 15 14 14 16 11 11 9 9 9 9 5 6 7 10 12 13 4 2 4 4 7 11 12 9 10 11 11 14 14 13 12 12 12 12 12 11 11 11
15 15 15 15 15 15 16 15 16 15 14 8 9 9 9 8 9 6 6 7 9 9 9 12 6 4 6 7 7 9 9 11 10 10 11 12 12 13 13 12 13 13 13 12
18 17 16 16 17 16 14 13 16 13 13 9 9 8 9 9 9 9 9 8 7 4 8 10 8 8 5 4 6 7 11 11 12 11 11 11 12 12 11 13 13 13 14 13
14 17 18 18 16 17 16 11 12 15 6 9 9 8 9 9 9 8 9 8 1 3 7 11 7 6 5 6 6 7 6 11 12 10 10 10 10 11 11 11 11 11 13 12
14 15 17 17 16 17 19 17 14 13 14 9 10 10 9 9 9 10 10 11 7 10 4 6 6 7 6 11 8 10 5 11 8 9 10 9 10 10 11 12 12 12 13 12
15 14 14 16 16 17 17 18 18 15 14 18 11 8 9 8 9 10 10 8 6 5 5 5 9 7 8 5 7 9 4 8 8 10 10 8 9 9 9 10 10 11 12 12
12 12 13 14 14 16 20 21 20 19 17 18 18 20 18 10 9 8 9 10 13 9 6 7 8 4 5 6 11 9 7 4 7 6 9 12 7 9 8 9 9 10 11 13
8 7 9 11 13 11 14 14 14 17 17 16 17 16 18 13 11 13 13 12 13 11 12 9 13 15 7 7 8 9 6 7 8 5 8 10 7 8 9 10 10 10 11 12
9 5 9 12 8 7 7 8 9 11 12 12 12 12 12 11 12 12 13 15 15 18 14 10 6 6 9 8 9 10 8 7 10 8 9 10 10 8 9 11 11 8 10 11
2 2 8 7 6 7 7 7 7 8 9 9 9 10 12 12 13 13 16 12 11 11 11 12 12 11 6 9 9 8 5 10 14 7 7 8 12 10 7 10 11 11 11 10
Wind_Direction
259 264 222 197 212 221 223 228 224 231 208 196 249 188 353 110 117 108 165 177 136 142 152 160 167 169 177 179 185 180 183 192 201 206 213 213 215 221 224 219 229 234 235 232
261 257 261 200 204 218 225 223 237 228 182 173 273 173 180 146 122 123 142 136 131 133 146 158 165 171 172 182 182 180 184 193 194 198 206 212 209 211 214 220 223 226 224 232
251 251 256 243 198 207 225 217 227 233 205 182 171 197 196 114 177 153 136 148 137 141 154 158 165 170 179 180 176 183 181 189 189 193 202 202 203 201 208 210 216 215 215 196
252 244 246 237 216 202 216 227 215 236 242 213 158 157 172 158 194 102 114 133 151 165 163 160 170 173 178 181 185 189 187 187 188 189 191 188 183 193 196 198 197 186 149 156
249 234 236 231 235 212 195 211 231 234 247 256 159 251 359 32 33 45 56 48 24 88 167 175 183 175 177 195 188 195 194 191 184 183 179 178 180 182 179 168 154 130 142 102
256 236 219 30 3 347 284 194 29 357 353 234 109 176 68 16 46 33 24 29 12 347 335 149 165 177 182 192 193 195 193 187 177 169 170 170 167 167 163 132 112 92 107 115
242 254 96 355 327 324 225 78 31 39 27 35 56 47 46 35 34 23 24 345 309 299 278 295 177 174 201 189 204 184 181 170 165 161 161 154 152 145 131 118 102 106 107 119
237 246 220 341 13 22 80 62 55 54 44 38 41 40 30 21 11 352 347 341 301 266 257 238 214 178 195 189 182 161 164 159 153 151 151 147 134 124 111 109 114 120 120 118
2 78 77 45 53 48 63 64 56 51 46 35 34 23 14 2 351 349 335 324 316 297 296 239 167 170 184 182 154 156 143 140 144 149 140 137 130 123 116 124 131 135 128 120
104 89 71 66 55 51 42 44 43 44 53 41 27 18 6 354 355 348 332 324 309 298 285 235 148 174 184 160 141 135 138 142 148 132 127 121 124 123 132 137 146 144 136 145
67 50 88 50 38 31 37 44 29 42 47 52 35 22 7 356 349 338 323 307 292 292 277 187 153 189 158 145 144 144 146 146 133 128 126 120 86 119 140 150 154 145 154 155
51 2 46 33 359 33 23 25 21 31 38 70 46 24 6 1 349 333 313 307 309 298 267 162 165 156 160 160 157 152 149 137 141 128 125 128 122 95 42 33 58 189 149 144
323 350 349 21 48 14 12 14 10 14 44 32 80 40 18 355 350 334 331 330 318 307 282 156 162 162 162 168 154 148 148 135 135 138 138 133 135 132 117 55 66 48 110 113
347 342 357 353 353 341 347 351 349 348 44 35 56 65 32 5 348 345 337 321 319 312 164 137 157 160 146 141 143 159 156 141 148 147 145 146 144 143 145 142 120 104 37 114
335 324 316 327 326 350 344 338 339 338 5 13 12 29 35 3 355 339 335 329 333 328 353 145 148 141 156 161 173 167 148 158 149 149 155 151 150 157 157 142 124 118 119 84
328 337 345 339 344 343 338 336 334 336 337 349 348 7 1 2 349 330 328 332 343 329 304 43 31 167 162 169 168 154 161 157 144 148 156 158 163 160 153 145 136 146 148 143
351 344 336 331 330 326 324 323 321 313 316 315 340 349 338 360 1 332 336 336 335 333 307 146 223 259 154 160 169 165 179 158 160 151 166 172 168 169 154 140 152 160 153 155
347 342 331 323 314 319 318 309 301 301 299 307 316 322 318 338 346 317 334 340 343 355 343 313 327 335 172 175 199 185 152 171 163 162 173 182 167 150 147 150 159 163 149 151
357 346 339 326 320 320 310 306 299 294 293 293 298 309 325 321 322 325 333 329 339 345 335 331 285 279 296 207 237 161 159 173 181 185 170 162 155 152 157 158 161 164 148 156
360 356 349 340 334 325 313 307 295 287 284 309 307 310 313 313 320 327 326 320 293 298 318 316 288 255 230 283 273 183 168 186 197 194 160 167 160 162 160 164 166 156 147 162
4 0 354 349 344 336 338 325 312 307 312 312 304 293 286 296 303 303 295 294 85 284 306 294 291 267 282 236 243 237 208 190 205 173 162 171 159 162 164 169 161 158 152 164
9 8 358 353 354 351 351 354 342 322 324 305 301 298 297 293 280 271 257 257 275 246 268 290 269 300 279 297 231 234 241 192 195 159 158 180 169 175 171 171 175 163 156 163
28 7 4 4 359 1 10 5 3 12 355 345 320 312 312 313 312 305 304 298 280 84 305 236 257 308 319 291 268 242 262 188 201 167 162 184 168 181 178 173 172 159 156 162
46 25 9 14 9 14 16 12 10 6 3 11 3 6 359 325 296 285 287 265 262 263 251 273 306 332 260 260 272 248 220 238 195 167 157 164 213 179 178 175 178 164 161 164
52 52 43 24 20 17 8 7 19 17 15 16 11 8 8 360 357 332 335 329 330 324 309 225 229 245 249 245 264 277 317 283 170 181 166 159 202 187 197 177 180 175 170 174
62 58 64 53 42 25 21 18 15 14 8 10 12 4 6 4 358 356 352 354 337 335 316 295 262 216 244 246 245 257 253 259 271 188 181 161 184 221 199 180 181 181 181 175
150 238 64 54 70 58 42 45 49 27 17 5 1 0 4 1 1 9 2 3 357 349 343 341 347 326 249 247 241 259 269 296 243 230 186 168 174 187 215 186 188 178 182 181